Regional Weather Roundup
Issued by NWS

Home | Current Version | Previous Version | Text Only | Print | Product List | Glossary Off
Versions: 1 2 3 4 5 6 7 8 9 10 11 12 13 14 15 16 17 18 19 20 21 22 23 24 25 26 27 28 29 30 31 32 33 34 35 36 37 38 39 40 41 42 43 44 45 46 47 48 49 50

000
ASUS43 KMKX 280800
RWRWI

WISCONSIN REGIONAL WEATHER ROUNDUP
NATIONAL WEATHER SERVICE MILWAUKEE/SULLIVAN WI
200 AM CST SUN DEC 28 2014

NOTE: "FAIR" INDICATES FEW OR NO CLOUDS BELOW 12,000 FEET WITH NO
SIGNIFICANT WEATHER AND/OR OBSTRUCTIONS TO VISIBILITY.

WIZ001-002-006>008-014>016-023>028-280900-
NORTHWEST WISCONSIN

CITY           SKY/WX    TMP DP  RH WIND       PRES   REMARKS
SUPERIOR ARPT  CLOUDY    21  14  75 W7        30.03S WCI  12
ASHLAND        CLOUDY    17  10  74 SW8       30.02R WCI   7
HAYWARD        CLOUDY    14  10  84 SW5       30.02S WCI   6
SIREN          CLOUDY    15  11  83 SW6       30.05S WCI   7
CUMBERLAND     CLOUDY     9   5  85 SW7       30.02F WCI  -3
RICE LAKE      CLOUDY    11   8  85 S3        30.05F
CHETEK         CLOUDY    10   7  86 SW6       30.05F WCI   1
LADYSMITH      CLEAR      9   7  90 S6        30.04S WCI   0
EAU CLAIRE     CLOUDY     9   5  85 SW6       30.08F WCI  -1
MENOMONIE      CLOUDY     8   5  87 CALM      30.08F
NEW RICHMOND   CLOUDY    12   8  85 SW7       30.07S WCI   1
OSCEOLA        CLOUDY    13  10  87 CALM      30.10S
$$

WIZ003>005-009-010-017-018-280900-
NORTH CENTRAL WISCONSIN

CITY           SKY/WX    TMP DP  RH WIND       PRES   REMARKS
MANITOWISH WTR CLEAR     10   8  92 SW5       29.95S WCI   2
ARBOR VITAE    CLEAR     14  11  87 W6        29.96R WCI   5
WOODRUFF       CLEAR     14  11  87 W6        29.96R WCI   5
RHINELANDER    PTCLDY     7   5  91 SW5       29.98R WCI  -2
EAGLE RIVER    MOCLDY    11   6  83 SW7       29.95R WCI   0
LAND O LAKES   CLEAR     14  11  87 SW5       29.94S WCI   6
PHILLIPS       MOCLDY     9   7  92 SW3       29.99R
TOMAHAWK       CLEAR     11   8  88 CALM      30.00S
MEDFORD        CLEAR      9   6  87 W6        30.01S WCI  -1
MERRILL        PTCLDY    10   8  91 W3        30.02S
$$

WIZ029-030-035-036-043>047-280900-
CENTRAL WISCONSIN

CITY           SKY/WX    TMP DP  RH WIND       PRES   REMARKS
WAUSAU         CLEAR     13   9  84 W7        30.03S WCI   3
MOSINEE        PTCLDY    12  12 100 W8        30.04S WCI   1
MARSHFIELD     CLEAR     11   7  84 W9        30.05S WCI  -2
STEVENS POINT  CLEAR     16  12  84 W9        30.07R WCI   4
WAUPACA        CLEAR     23  18  83 W10G16    30.07S WCI  12
WAUTOMA        NOT AVBL
WISC RAPIDS    CLEAR     16  10  77 W8        30.09R WCI   5
CAMP DOUGLAS   NOT AVBL
$$

WIZ011>013-019>022-031-037>040-048>050-280900-
NORTHEAST WISCONSIN

CITY           SKY/WX    TMP DP  RH WIND       PRES   REMARKS
ANTIGO         CLOUDY    11  10  95 W6        29.99S WCI   1
SHAWANO        PTCLDY    22  17  83 W8        30.06S WCI  12
OCONTO         FAIR      22  18  83 W8        30.05R WCI  13
STURGEON BAY   CLEAR     25  18  74 W10       30.04R WCI  15
GREEN BAY      CLEAR     24  19  81 W10       30.06R WCI  14
MANITOWOC      NOT AVBL
APPLETON       CLEAR     21  19  93 W9        30.06S WCI  11
CLINTONVILLE   PTCLDY    21  18  86 W10       30.06S WCI  10
OSHKOSH        CLEAR     23  17  78 W7        30.07S WCI  15
$$

WIZ032>034-041-042-053>061-280900-
SOUTHWEST WISCONSIN

CITY           SKY/WX    TMP DP  RH WIND       PRES   REMARKS
LA CROSSE      CLEAR     15   9  76 S8        30.14S WCI   4
SPARTA         CLEAR     15  10  81 CALM      30.13R
VIROQUA        CLEAR     15  13  90 W6        30.09S WCI   6
BOSCOBEL       CLEAR     17  10  74 SW5       30.16S WCI  10
PRAIRIE DU CHI CLEAR     18  12  77 CALM      30.16S
PLATTEVILLE    CLEAR     18  15  85 CALM      30.14R
$$

WIZ056-057-062-063-064-067-068-280900-
SOUTH CENTRAL WISCONSIN

CITY           SKY/WX    TMP DP  RH WIND       PRES   REMARKS
REEDSBURG      CLEAR     19  13  80 W7        30.10S WCI   9
BARABOO/DELLS  CLEAR     19  16  86 W7        30.09S WCI  10
LONE ROCK      NOT AVBL
MINERAL POINT  CLEAR     21  16  79 W8        30.11R WCI  12
MADISON        CLEAR     22  16  78 W5        30.11R WCI  16
MIDDLETON      CLEAR     22  18  84 W8        30.11R WCI  13
WATERTOWN      PTCLDY    24  20  82 W6        30.10R WCI  17
MONROE         CLEAR     21  19  93 W10       30.11S WCI  10
JANESVILLE     CLOUDY    27  21  80 W8        30.12R WCI  18
$$

WIZ051-052-058>065-066-070>072-280900-
SOUTHEAST WISCONSIN

CITY           SKY/WX    TMP DP  RH WIND       PRES   REMARKS
MILWAUKEE      PTCLDY    28  19  69 NW14      30.09R WCI  17
WAUKESHA       CLEAR     25  19  80 W8        30.10R WCI  16
MILWAUKEE/TIMM CLEAR     27  19  74 W5        30.09R WCI  21
RACINE         CLEAR     28  19  69 W13G22    30.11R WCI  17
BURLINGTON     PTCLDY    26  20  79 W7        30.10R WCI  18
KENOSHA        PTCLDY    29  21  72 W12       30.10R WCI  19
FOND DU LAC    CLEAR     23  17  78 SW6       30.08S WCI  16
SHEBOYGAN      CLEAR     24  18  77 W12       30.07R WCI  13
WEST BEND      PTCLDY    27  19  74 W8        30.07S WCI  18
JUNEAU         CLEAR     23  19  84 W7        30.10R WCI  14
$$

LSZ147-162-280900-
LAKE SUPERIOR

STATION/POSITION TIME  TEMP    WIND        PRES    WAVE
                       AIR SEA DIR/SP/G            HT/PER
                 (UTC) (F)     (DEG/KT/KT) (MB)    (FT/S)
DEVILS ISLAND    0700   23     280/ 20/ 23 1016.8R
PORT WING        0700   24     270/ 13/ 19 1016.6S
SAXON HARBOR     0700   20     200/  8/ 14 1015.9F
$$

LMZ867-665-643>646-280900-
LAKE MICHIGAN

STATION/POSITION TIME  TEMP    WIND        PRES    WAVE
                       AIR SEA DIR/SP/G            HT/PER
                 (UTC) (F)     (DEG/KT/KT) (MB)    (FT/S)
CHAMBERS ISLAND  0700   25     230/  8/ 15 1016.6F
NORTHPORT PIER   0700   26     290/ 10/ 17 1015.9S
SISTER BAY       0713          280/ 16/ 19   N/A
ALGOMA LAKESHORE 0600          320/ 10/ 17   N/A
KEWAUNEE LAKESHO 0700   26     280/ 10/ 15 1016.2S
SHEBOYGAN LAKESH 0700   27 38  280/ 17/ 19 1018.7F
PORT WASHINGTON  0740   27     290/  6/ 13 1019.3R
MILWAUKEE LAKESH 0700   29     290/ 13/ 19   N/A
KENOSHA   LAKESH 0700   31     290/  9/ 13 1018.6R
$$

TC  - TEMPERATURE IN CELSIUS
VSB - VISIBILITY IN STATUTE MILES
WCI - WIND CHILL INDEX
HX  - HEAT INDEX




USA.gov is the U.S. government's official web portal to all federal, state and local government web resources and services.